Rochelle, IL

11:03 AM CST on November 12, 2019 (GMT -0600)
Rochelle

Weather History for KRPJ - August, 2019

Change the Weather History Date:

Tuesday, August 20, 2019

  Actual Average (WUND) Record (WUND)
Temperature  
Mean Temperature 70 °F -  
Max Temperature 75 °F - - (-1)
Min Temperature 64 °F - - (-1)
Cooling Degree Days 4    
Growing Degree Days 20 (Base 50)    
Moisture  
Dew Point 67 °F    
Average Humidity 95    
Maximum Humidity 100    
Minimum Humidity 75    
Precipitation  
Precipitation 0.77 in - - ()
Sea Level Pressure  
Sea Level Pressure 29.99 in    
Wind  
Wind Speed 2 mph ()    
Max Wind Speed 31 mph    
Max Gust Speed 40 mph    
Visibility 5.6 miles    
Events Fog , Rain , Thunderstorm    
Averages and records for this station are not official NWS values.
T = Trace of Precipitation, MM = Missing Value Source: Averaged Metar Reports

Daily Weather History Graph

Daily Weather History Graph

Search for Another Location

Airport or City:

Astronomy

Aug. 20, 2019 Rise Set
Actual Time 6:09 AM CDT 7:49 PM CDT
Civil Twilight 5:39 AM CDT 8:18 PM CDT
Nautical Twilight 5:03 AM CDT 8:54 PM CDT
Astronomical Twilight 4:25 AM CDT 9:32 PM CDT
Moon 10:33 PM CDT (8/20) 10:51 AM CDT (8/20)
Length of Visible Light 14h 39m
Length of Day
13h 39m
Waning Gibbous, 77% of the Moon is Illuminated
Aug 20
Waning Gibbous
Aug 23
Last Quarter
Aug 30
New
Sep 5
First Quarter
Sep 13
Full

Hourly Weather History & Observations

Time (CDT) Temp. Dew Point Humidity Pressure Visibility Wind Dir Wind Speed Gust Speed Precip Events Conditions
12:15 AM 68.0 °F 68.0 °F 100% 30.02 in 0.2 mi Calm Calm - N/A Fog Fog
12:35 AM 67.5 °F 67.5 °F 100% 30.03 in 2.0 mi Calm Calm - N/A   Scattered Clouds
12:55 AM 67.1 °F 67.1 °F 100% 30.03 in 1.0 mi Calm Calm - N/A   Mist
1:15 AM 66.6 °F 66.6 °F 100% 30.03 in 3.0 mi Calm Calm - N/A   Scattered Clouds
1:35 AM 66.2 °F 66.2 °F 100% 30.03 in 0.2 mi Calm Calm - N/A Fog Fog
1:55 AM 66.0 °F 66.0 °F 100% 30.03 in 0.2 mi Calm Calm - N/A Fog Fog
2:15 AM 65.8 °F 65.8 °F 100% 30.03 in 0.2 mi Calm Calm - N/A Fog Fog
2:35 AM 66.2 °F 66.2 °F 100% 30.04 in 0.2 mi Calm Calm - N/A Fog Fog
2:55 AM 66.4 °F 66.4 °F 100% 30.04 in 0.2 mi Calm Calm - N/A Fog Fog
3:15 AM 65.8 °F 65.8 °F 100% 30.03 in 0.2 mi Calm Calm - N/A Fog Fog
3:35 AM 65.5 °F 65.5 °F 100% 30.04 in 0.2 mi Calm Calm - N/A Fog Fog
3:55 AM 65.7 °F 65.7 °F 100% 30.04 in 0.2 mi Calm Calm - N/A Fog Fog
4:15 AM 66.0 °F 66.0 °F 100% 30.03 in 0.5 mi Calm Calm - N/A Fog Fog
4:35 AM 65.3 °F 65.3 °F 100% 30.01 in 0.8 mi ENE 4.6 mph - N/A   Overcast
4:55 AM 66.7 °F 66.7 °F 100% 29.99 in 1.5 mi ENE 3.5 mph - N/A   Mist
5:15 AM 66.4 °F 66.4 °F 100% 29.99 in 1.2 mi Calm Calm - N/A   Mist
5:35 AM 65.8 °F 65.8 °F 100% 29.98 in 1.5 mi NE 3.5 mph - N/A   Scattered Clouds
5:55 AM 66.2 °F 66.2 °F 100% 29.99 in 2.0 mi Calm Calm - N/A   Clear
6:15 AM 66.4 °F 66.4 °F 100% 30.00 in 1.5 mi Calm Calm - N/A   Mostly Cloudy
6:35 AM 66.9 °F 66.9 °F 100% 29.99 in 1.5 mi Calm Calm - N/A   Scattered Clouds
6:50 AM 66.7 °F 66.7 °F 100% 30.01 in 1.2 mi Calm Calm - N/A   Mist
7:15 AM 67.1 °F 67.1 °F 100% 30.01 in 1.5 mi Calm Calm - N/A   Scattered Clouds
7:35 AM 67.3 °F 67.3 °F 100% 30.03 in 1.2 mi Calm Calm - N/A   Scattered Clouds
7:55 AM 68.2 °F 68.2 °F 100% 30.02 in 1.2 mi Calm Calm - N/A   Scattered Clouds
8:15 AM 68.9 °F 68.9 °F 100% 30.02 in 1.2 mi Calm Calm - N/A   Mist
8:35 AM 68.9 °F 68.9 °F 100% 30.03 in 1.0 mi Calm Calm - N/A Rain Light Rain
8:55 AM 69.1 °F 69.1 °F 100% 30.01 in 1.0 mi Calm Calm - N/A Rain Light Rain
9:15 AM 69.4 °F 69.4 °F 100% 29.98 in 1.0 mi Calm Calm - N/A   Mostly Cloudy
9:35 AM 69.3 °F 69.3 °F 100% 29.98 in 0.8 mi ESE 3.5 mph - N/A Rain , Thunderstorm Light Thunderstorms and Rain
9:55 AM 69.8 °F 69.8 °F 100% 30.01 in 1.2 mi Calm Calm - N/A Rain , Thunderstorm Light Thunderstorms and Rain
10:15 AM 69.8 °F 69.8 °F 100% 30.07 in 1.5 mi WSW 31.1 mph 40.3 mph 0.08 in Rain , Thunderstorm Heavy Thunderstorms and Rain
10:35 AM 67.1 °F 67.1 °F 100% 30.01 in 2.5 mi West 16.1 mph 25.3 mph 0.61 in Rain , Thunderstorm Heavy Thunderstorms and Rain
10:55 AM 67.6 °F 67.6 °F 100% 29.96 in 10.0 mi Calm Calm - 0.64 in Rain , Thunderstorm Light Thunderstorms and Rain
11:15 AM 68.0 °F 68.0 °F 100% 29.94 in 10.0 mi ESE 8.1 mph - N/A Rain , Thunderstorm Light Thunderstorms and Rain
11:55 AM 68.2 °F 68.2 °F 100% 29.95 in 10.0 mi South 11.5 mph - 0.01 in   Scattered Clouds
12:15 PM 70.7 °F 70.5 °F 99% 29.93 in 10.0 mi SE 4.6 mph - N/A   Clear
12:35 PM 72.0 °F 69.8 °F 93% 29.94 in 10.0 mi South 9.2 mph - N/A   Scattered Clouds
12:55 PM 73.2 °F 67.8 °F 83% 29.94 in 10.0 mi SSE 5.8 mph - N/A   Mostly Cloudy
1:15 PM 73.2 °F 67.6 °F 83% 29.96 in 10.0 mi South 5.8 mph - N/A   Overcast
1:35 PM 69.4 °F 68.7 °F 98% 29.99 in 4.0 mi SSE 8.1 mph - N/A Rain Rain
1:55 PM 68.4 °F 68.4 °F 100% 30.00 in 3.0 mi East 4.6 mph - 0.10 in Rain Rain
2:15 PM 68.5 °F 68.2 °F 99% 30.01 in 4.0 mi ENE 5.8 mph - 0.01 in Rain Rain
2:35 PM 70.3 °F 69.8 °F 98% 30.00 in 10.0 mi East 8.1 mph - 0.02 in   Mostly Cloudy
2:55 PM 72.5 °F 69.6 °F 91% 29.99 in 10.0 mi ENE 5.8 mph - 0.02 in   Mostly Cloudy
3:15 PM 72.0 °F 68.0 °F 87% 29.97 in 10.0 mi Calm Calm - N/A   Overcast
3:35 PM 72.1 °F 68.5 °F 88% 29.99 in 10.0 mi Calm Calm - N/A   Overcast
3:55 PM 72.5 °F 67.8 °F 85% 29.98 in 10.0 mi Calm Calm - N/A   Overcast
4:15 PM 73.2 °F 68.0 °F 84% 29.97 in 10.0 mi Calm Calm - N/A   Mostly Cloudy
4:35 PM 74.3 °F 68.9 °F 83% 29.96 in 10.0 mi NNE 3.5 mph - N/A   Clear
4:55 PM 74.3 °F 68.0 °F 81% 29.93 in 10.0 mi ENE 3.5 mph - N/A   Clear
5:15 PM 74.7 °F 67.6 °F 79% 29.92 in 10.0 mi NNE 4.6 mph - N/A   Clear
5:35 PM 75.2 °F 67.5 °F 77% 29.93 in 10.0 mi NNE 5.8 mph - N/A   Clear
5:55 PM 75.6 °F 67.8 °F 77% 29.93 in 10.0 mi North 5.8 mph - N/A   Clear
6:15 PM 75.2 °F 66.7 °F 75% 29.92 in 10.0 mi NE 6.9 mph - N/A   Clear
6:35 PM 74.3 °F 67.1 °F 78% 29.91 in 10.0 mi East 3.5 mph - N/A   Clear
6:55 PM 73.8 °F 67.6 °F 81% 29.93 in 10.0 mi Calm Calm - N/A   Clear
7:15 PM 73.6 °F 67.6 °F 82% 29.93 in 10.0 mi Calm Calm - N/A   Clear
7:35 PM 72.9 °F 68.0 °F 85% 29.94 in 10.0 mi Calm Calm - N/A   Clear
7:55 PM 70.5 °F 67.5 °F 90% 29.95 in 10.0 mi Calm Calm - N/A   Clear
8:15 PM 68.9 °F 68.0 °F 97% 29.96 in 10.0 mi Calm Calm - N/A   Clear
8:35 PM 69.1 °F 67.8 °F 96% 29.98 in 10.0 mi Calm Calm - N/A   Clear
8:55 PM 67.1 °F 66.6 °F 98% 29.97 in 10.0 mi Calm Calm - N/A   Clear
9:15 PM 66.4 °F 66.4 °F 100% 29.98 in 10.0 mi Calm Calm - N/A   Clear
9:35 PM 66.6 °F 66.4 °F 99% 29.99 in 10.0 mi Calm Calm - N/A   Clear
9:55 PM 65.8 °F 65.8 °F 100% 30.00 in 10.0 mi WSW 4.6 mph - N/A   Clear
10:15 PM 65.3 °F 65.3 °F 100% 30.00 in 10.0 mi WSW 3.5 mph - N/A   Clear
10:35 PM 64.4 °F 64.4 °F 100% 30.01 in 10.0 mi Calm Calm - N/A   Clear
10:55 PM 64.0 °F 64.0 °F 100% 30.01 in 10.0 mi SSE 3.5 mph - N/A   Clear
11:15 PM 64.0 °F 64.0 °F 100% 30.01 in 10.0 mi SSE 4.6 mph - N/A   Clear
11:35 PM 64.2 °F 64.2 °F 100% 30.01 in 5.0 mi SSE 3.5 mph - N/A   Clear
11:55 PM 64.0 °F 64.0 °F 100% 30.00 in 5.0 mi SE 4.6 mph - N/A   Clear